TimeEST,TemperatureF,Dew PointF,Humidity,Sea Level PressureIn,VisibilityMPH,Wind Direction,Wind SpeedMPH,Gust SpeedMPH,PrecipitationIn,Events,Conditions,WindDirDegrees,DateUTC
12:15 AM,38.1,36.5,94,29.44,10.0,WNW,5.8,-,N/A,Rain,Light Rain,290,2012-12-19 05:15:00
12:35 AM,37.6,36.1,95,29.44,10.0,WNW,5.8,-,N/A,Rain,Rain,300,2012-12-19 05:35:00
12:55 AM,37.4,36.0,95,29.44,7.0,WNW,6.9,-,N/A,Rain,Rain,290,2012-12-19 05:55:00
1:15 AM,37.9,36.1,93,29.44,10.0,WNW,4.6,-,N/A,Rain,Rain,290,2012-12-19 06:15:00
1:35 AM,37.6,35.8,93,29.45,10.0,NW,5.8,-,N/A,,Drizzle,320,2012-12-19 06:35:00
1:55 AM,37.4,35.8,94,29.45,10.0,West,6.9,-,N/A,,Light Drizzle,270,2012-12-19 06:55:00
2:15 AM,37.8,35.2,91,29.45,10.0,West,6.9,17.3,N/A,,Overcast,270,2012-12-19 07:15:00
2:35 AM,37.4,34.9,91,29.46,10.0,WNW,6.9,-,N/A,,Overcast,290,2012-12-19 07:35:00
2:55 AM,37.6,34.5,89,29.46,10.0,West,10.4,17.3,N/A,,Overcast,280,2012-12-19 07:55:00
3:15 AM,37.4,34.2,88,29.47,10.0,West,10.4,-,N/A,,Overcast,280,2012-12-19 08:15:00
3:35 AM,37.4,34.2,88,29.47,10.0,West,9.2,-,N/A,,Overcast,280,2012-12-19 08:35:00
3:55 AM,37.4,34.0,87,29.48,10.0,West,6.9,-,N/A,,Overcast,280,2012-12-19 08:55:00
4:15 AM,37.6,33.1,84,29.48,10.0,West,12.7,17.3,N/A,,Overcast,270,2012-12-19 09:15:00
4:35 AM,36.7,32.7,86,29.49,10.0,WNW,11.5,-,N/A,,Overcast,290,2012-12-19 09:35:00
4:55 AM,36.5,32.2,84,29.49,10.0,NW,9.2,-,N/A,,Overcast,310,2012-12-19 09:55:00
5:15 AM,36.5,32.0,84,29.50,10.0,NW,11.5,16.1,N/A,,Overcast,310,2012-12-19 10:15:00
5:35 AM,36.1,31.8,84,29.51,10.0,WNW,15.0,19.6,N/A,,Overcast,300,2012-12-19 10:35:00
5:55 AM,36.0,31.8,85,29.52,10.0,WNW,12.7,18.4,N/A,,Overcast,290,2012-12-19 10:55:00
6:15 AM,35.6,31.8,86,29.53,10.0,WNW,12.7,18.4,N/A,,Overcast,300,2012-12-19 11:15:00
6:35 AM,35.6,31.5,85,29.54,10.0,WNW,13.8,25.3,N/A,,Overcast,290,2012-12-19 11:35:00
6:55 AM,35.6,31.1,84,29.55,10.0,WNW,12.7,-,N/A,,Overcast,290,2012-12-19 11:55:00
7:15 AM,35.6,31.1,84,29.56,10.0,WNW,13.8,20.7,N/A,,Overcast,300,2012-12-19 12:15:00
7:35 AM,35.6,30.9,83,29.56,10.0,WNW,16.1,20.7,N/A,,Overcast,290,2012-12-19 12:35:00
7:55 AM,35.6,30.9,83,29.58,10.0,WNW,16.1,23.0,N/A,,Overcast,300,2012-12-19 12:55:00
8:15 AM,35.8,30.7,82,29.59,10.0,WNW,13.8,-,N/A,,Overcast,300,2012-12-19 13:15:00
8:35 AM,36.1,30.2,79,29.59,10.0,WNW,13.8,24.2,N/A,,Overcast,300,2012-12-19 13:35:00
8:55 AM,36.5,30.4,78,29.60,10.0,WNW,13.8,23.0,N/A,,Scattered Clouds,290,2012-12-19 13:55:00
9:15 AM,37.0,30.2,76,29.61,10.0,WNW,12.7,20.7,N/A,,Clear,290,2012-12-19 14:15:00
9:35 AM,37.4,30.4,76,29.62,10.0,West,11.5,-,N/A,,Scattered Clouds,280,2012-12-19 14:35:00
9:55 AM,37.8,30.6,75,29.63,10.0,WNW,10.4,20.7,N/A,,Clear,290,2012-12-19 14:55:00
10:15 AM,37.9,30.4,74,29.63,10.0,WNW,12.7,24.2,N/A,,Clear,290,2012-12-19 15:15:00
10:35 AM,37.9,30.9,76,29.63,10.0,WNW,13.8,18.4,N/A,,Scattered Clouds,290,2012-12-19 15:35:00
10:55 AM,37.8,30.6,75,29.64,10.0,West,12.7,18.4,N/A,,Scattered Clouds,280,2012-12-19 15:55:00
11:15 AM,37.8,30.7,76,29.65,10.0,WNW,12.7,17.3,N/A,,Overcast,290,2012-12-19 16:15:00
11:35 AM,38.3,30.7,74,29.65,10.0,WNW,12.7,18.4,N/A,,Overcast,300,2012-12-19 16:35:00
11:55 AM,38.3,30.4,73,29.67,10.0,West,11.5,18.4,N/A,,Overcast,280,2012-12-19 16:55:00
12:15 PM,38.3,30.7,74,29.68,10.0,WNW,12.7,18.4,N/A,,Overcast,290,2012-12-19 17:15:00
12:35 PM,38.1,30.7,75,29.69,10.0,West,12.7,21.9,N/A,,Overcast,280,2012-12-19 17:35:00
12:55 PM,37.9,30.9,76,29.70,10.0,WNW,10.4,-,N/A,,Overcast,290,2012-12-19 17:55:00
1:15 PM,37.9,31.5,77,29.71,10.0,WNW,11.5,17.3,N/A,,Overcast,290,2012-12-19 18:15:00
1:35 PM,37.6,31.1,77,29.72,10.0,WNW,11.5,19.6,N/A,,Overcast,300,2012-12-19 18:35:00
1:55 PM,37.4,31.1,78,29.73,10.0,WNW,16.1,20.7,N/A,,Overcast,290,2012-12-19 18:55:00
2:15 PM,37.4,31.3,79,29.74,10.0,WNW,13.8,19.6,N/A,,Overcast,300,2012-12-19 19:15:00
2:35 PM,37.6,30.9,77,29.75,10.0,WNW,11.5,-,N/A,,Overcast,290,2012-12-19 19:35:00
2:55 PM,37.6,30.9,77,29.76,10.0,WNW,12.7,17.3,N/A,,Overcast,290,2012-12-19 19:55:00
3:15 PM,37.4,31.1,78,29.78,10.0,WNW,11.5,-,N/A,,Overcast,290,2012-12-19 20:15:00
3:35 PM,37.0,31.1,79,29.79,10.0,WNW,11.5,20.7,N/A,,Overcast,290,2012-12-19 20:35:00
3:55 PM,37.0,30.9,79,29.81,10.0,WNW,13.8,18.4,N/A,,Overcast,290,2012-12-19 20:55:00
4:15 PM,36.5,31.3,81,29.82,10.0,WNW,11.5,-,N/A,,Overcast,290,2012-12-19 21:15:00
4:35 PM,36.0,31.8,85,29.84,10.0,WNW,10.4,17.3,N/A,,Light Drizzle,300,2012-12-19 21:35:00
4:55 PM,36.0,31.3,83,29.86,10.0,WNW,9.2,16.1,N/A,Rain,Light Rain,300,2012-12-19 21:55:00
5:15 PM,35.8,31.1,83,29.87,10.0,WNW,9.2,-,N/A,Rain,Light Rain,300,2012-12-19 22:15:00
5:35 PM,36.0,30.9,82,29.88,10.0,NW,9.2,-,N/A,,Overcast,320,2012-12-19 22:35:00
5:55 PM,36.0,30.2,80,29.88,10.0,NW,11.5,-,N/A,,Overcast,310,2012-12-19 22:55:00
6:15 PM,36.0,29.8,78,29.89,10.0,WNW,11.5,17.3,N/A,,Overcast,290,2012-12-19 23:15:00
6:35 PM,36.1,29.8,78,29.90,10.0,WNW,10.4,18.4,N/A,,Overcast,300,2012-12-19 23:35:00
6:55 PM,36.0,29.8,78,29.91,10.0,WNW,8.1,-,N/A,,Overcast,290,2012-12-19 23:55:00
7:15 PM,36.1,29.8,78,29.93,10.0,NW,11.5,-,N/A,,Overcast,310,2012-12-20 00:15:00
7:35 PM,36.0,29.8,78,29.94,10.0,NW,6.9,-,N/A,,Overcast,320,2012-12-20 00:35:00
7:55 PM,36.1,29.7,77,29.95,10.0,WNW,6.9,-,N/A,,Overcast,300,2012-12-20 00:55:00
8:15 PM,36.3,29.7,77,29.96,10.0,NW,11.5,18.4,N/A,,Overcast,310,2012-12-20 01:15:00
8:35 PM,36.5,29.7,76,29.97,10.0,NW,12.7,17.3,N/A,,Overcast,310,2012-12-20 01:35:00
8:55 PM,36.5,29.7,76,29.97,10.0,NW,8.1,-,N/A,,Overcast,320,2012-12-20 01:55:00
9:15 PM,36.7,29.8,76,29.98,10.0,NW,8.1,-,N/A,,Overcast,310,2012-12-20 02:15:00
9:35 PM,36.5,29.8,77,29.98,10.0,WNW,8.1,-,N/A,,Overcast,290,2012-12-20 02:35:00
9:55 PM,36.9,29.5,75,29.99,10.0,NW,10.4,19.6,N/A,,Overcast,320,2012-12-20 02:55:00
10:15 PM,36.7,29.5,75,29.99,10.0,WNW,8.1,-,N/A,,Overcast,300,2012-12-20 03:15:00
10:35 PM,36.5,29.7,76,30.00,10.0,WNW,9.2,-,N/A,,Mostly Cloudy,300,2012-12-20 03:35:00
10:55 PM,36.1,29.7,77,30.00,10.0,WNW,6.9,-,N/A,,Mostly Cloudy,290,2012-12-20 03:55:00
11:15 PM,36.1,29.7,77,30.01,10.0,WNW,11.5,-,N/A,,Overcast,290,2012-12-20 04:15:00
11:35 PM,36.1,29.7,77,30.01,10.0,WNW,11.5,16.1,N/A,,Mostly Cloudy,290,2012-12-20 04:35:00
11:55 PM,36.1,29.7,77,30.03,10.0,WNW,10.4,-,N/A,,Overcast,300,2012-12-20 04:55:00